Location: Banksville Park
(38.5557°N, 75.1182°W)
Time: 17:12:51
(UTC+00:00)

ARGOS - Pass Details

Date: 19 September 2020
Orbit: 821 x 834 km, 98.4° (Epoch: 30 October)

Event Time Altitude Azimuth Distance (km) Brightness Sun altitude
Exits shadow 00:16:40 - 162° (SSE) 3,199 5.9 -15.1°
Reaches altitude 10° 00:18:39 10° 161° (SSE) 2,409 5.3 -15.5°
Maximum altitude 00:23:59 79° 75° (ENE) 840 3.1 -16.5°
Drops below altitude 10° 00:29:22 10° 350° (N) 2,430 5.9 -17.5°
Sets 00:31:43 0° 349° (N) 3,369 6.7 -17.9°
